Saipan, MP

10:49 PM ChST on September 30, 2016 (GMT +1000)
Saipan International

Weather History for PGSN - March, 2013

Change the Weather History Date:

Saturday, March 9, 2013

  Actual Average Record
Temperature  
Mean Temperature 80 °F -  
Max Temperature 86 °F 82 °F 87 °F (2011)
Min Temperature 75 °F 73 °F 73 °F (2001)
Cooling Degree Days 16    
Growing Degree Days 30 (Base 50)    
Moisture  
Dew Point 71 °F    
Average Humidity 73    
Maximum Humidity 87    
Minimum Humidity 59    
Precipitation  
Precipitation 0.03 in - - ()
Sea Level Pressure  
Sea Level Pressure 30.01 in    
Wind  
Wind Speed 13 mph (NE)    
Max Wind Speed 21 mph    
Max Gust Speed 30 mph    
Visibility 10 miles    
Events Rain    
Averages and records for this station are not official NWS values.
T = Trace of Precipitation, MM = Missing Value Source: NWS Daily Summary

Daily Weather History Graph

Daily Weather History Graph

Search for Another Location

Airport or City:

Trip Planner

Search our weather history database for the weather conditions in past years. The results will help you decide how hot, cold, wet, or windy it might be!

Date:

Astronomy

Mar. 09, 2013 Rise Set
Actual Time 6:29 AM ChST 6:26 PM ChST
Civil Twilight 6:07 AM ChST 6:47 PM ChST
Nautical Twilight 5:42 AM ChST 7:12 PM ChST
Astronomical Twilight 5:18 AM ChST 7:37 PM ChST
Moon 4:05 AM ChST (3/9) 4:02 PM ChST (3/9)
Length of Visible Light 12h 39m
Length of Day
11h 57m
Waning Crescent, 9% of the Moon is Illuminated
Mar 9
Waning Crescent
Mar 12
New
Mar 20
First Quarter
Mar 27
Full
Apr 3
Last Quarter

Hourly Weather History & Observations

Time (ChST) Temp. Heat Index Dew Point Humidity Pressure Visibility Wind Dir Wind Speed Gust Speed Precip Events Conditions
12:54 AM 78.1 °F - 71.1 °F 79% 30.01 in 10.0 mi ENE 11.5 mph - N/A   Scattered Clouds
1:54 AM 78.1 °F - 72.0 °F 81% 30.00 in 10.0 mi East 6.9 mph - N/A   Scattered Clouds
2:54 AM 79.0 °F - 72.0 °F 79% 29.99 in 10.0 mi Variable 6.9 mph - 0.00 in Rain Light Rain
3:54 AM 77.0 °F - 71.1 °F 82% 29.98 in 10.0 mi NNE 10.4 mph - 0.02 in   Mostly Cloudy
4:54 AM 77.0 °F - 69.1 °F 76% 29.98 in 10.0 mi NNE 10.4 mph - N/A   Partly Cloudy
5:54 AM 77.0 °F - 71.1 °F 82% 30.01 in 10.0 mi NE 8.1 mph - N/A   Scattered Clouds
6:54 AM 78.1 °F - 72.0 °F 81% 30.03 in 10.0 mi NE 8.1 mph - 0.00 in   Scattered Clouds
7:54 AM 75.9 °F - 72.0 °F 87% 30.06 in 10.0 mi NNE 9.2 mph - 0.00 in   Mostly Cloudy
8:54 AM 82.0 °F 87.4 °F 73.0 °F 74% 30.06 in 10.0 mi NE 10.4 mph - 0.00 in   Scattered Clouds
9:54 AM 82.9 °F 87.5 °F 71.1 °F 67% 30.07 in 10.0 mi NE 18.4 mph - N/A   Partly Cloudy
10:54 AM 84.0 °F 89.0 °F 71.1 °F 65% 30.06 in 10.0 mi NE 17.3 mph 24.2 mph N/A   Partly Cloudy
11:54 AM 82.0 °F 86.7 °F 72.0 °F 71% 30.04 in 10.0 mi NNE 12.7 mph 29.9 mph 0.00 in Rain Light Rain
12:54 PM 86.0 °F 90.7 °F 70.0 °F 59% 30.01 in 10.0 mi NE 19.6 mph 27.6 mph N/A   Mostly Cloudy
1:54 PM 86.0 °F 90.7 °F 70.0 °F 59% 30.00 in 10.0 mi NNE 19.6 mph 26.5 mph N/A   Mostly Cloudy
2:54 PM 84.9 °F 89.4 °F 70.0 °F 61% 29.98 in 10.0 mi NE 19.6 mph 28.8 mph N/A   Overcast
3:54 PM 84.0 °F 88.4 °F 70.0 °F 63% 29.98 in 10.0 mi NE 20.7 mph 28.8 mph N/A   Mostly Cloudy
4:54 PM 81.0 °F 85.2 °F 72.0 °F 74% 29.99 in 10.0 mi NE 17.3 mph - 0.01 in   Mostly Cloudy
5:54 PM 80.1 °F 83.6 °F 71.1 °F 74% 30.00 in 10.0 mi NE 17.3 mph 23.0 mph 0.00 in   Overcast
6:54 PM 80.1 °F 83.2 °F 70.0 °F 71% 30.01 in 10.0 mi NE 18.4 mph 26.5 mph N/A   Mostly Cloudy
7:54 PM 79.0 °F - 70.0 °F 74% 30.01 in 10.0 mi ENE 18.4 mph 24.2 mph N/A   Partly Cloudy
8:24 PM 80.6 °F 84.6 °F 71.6 °F 74% 29.96 in 10.0 mi ENE 16.1 mph - N/A   Mostly Cloudy
8:31 PM 78.8 °F - 69.8 °F 74% 29.96 in 10.0 mi ENE 18.4 mph 25.3 mph N/A   Scattered Clouds
8:54 PM 80.1 °F 83.2 °F 70.0 °F 71% 30.03 in 10.0 mi NE 17.3 mph 25.3 mph N/A   Scattered Clouds
9:54 PM 80.1 °F 83.6 °F 71.1 °F 74% 30.03 in 10.0 mi NE 19.6 mph 23.0 mph N/A   Mostly Cloudy
10:54 PM 80.1 °F 83.6 °F 71.1 °F 74% 30.02 in 10.0 mi NE 16.1 mph - N/A   Overcast
11:54 PM 79.0 °F - 70.0 °F 74% 30.02 in 10.0 mi NE 16.1 mph 25.3 mph N/A   Mostly Cloudy